[ ตารางข้อมูล ] [ Min-Max ] [ วันนี้4 ] [ วันนี้2 ] [ เทียบ3วัน A ] [ เทียบ4วัน B ]   

วันนี้2   [ ◀ ช่วงเก่ากว่า ] [ ช่วงที่ 303 ] [ ช่วงใหม่กว่า ▶ ] [ ล่าสุด ]    [ 3 ชั่วโมง ] [ 6 ชั่วโมง ] [ 12 ชั่วโมง ] [ 24 ชั่วโมง ]   วันนี้2

อุณภูมิตู้ Knockdown4529  ราย 3 ชั่วโมง  ที่วัดได้ ในช่วงวันเวลา 01/04/2026 (01:26) ถึง 01/04/2026 (04:26) 
ความชื้นในตู้ Knockdown4529  ราย 3 ชั่วโมง  ที่วัดได้ ในช่วงวันเวลา 01/04/2026 (01:26) ถึง 01/04/2026 (04:26) 

 
DS18B20SHTC3 
IDDate d/m/Y & Timedata1
สูง
data2
ต่ำ
data3
นอก
temp
pcb
hum
pcb
Time
 7703  01/04/2026 04:25:04  28.4  28.4  25.7  28.2  73.4  04:25 
 7702  01/04/2026 04:20:22  28.4  28.4  25.8  28.4  73.3  04:20 
 7701  01/04/2026 04:15:41  28.5  28.4  25.6  28.2  73.2  04:15 
 7700  01/04/2026 04:10:59  28.5  28.4  25.4  28.4  73.2  04:10 
 7699  01/04/2026 04:06:17  28.6  28.5  25.3  28.3  73.1  04:06 
 7698  01/04/2026 04:01:35  28.6  28.5  25.4  28.5  73.3  04:01 
 7697  01/04/2026 03:56:54  28.6  28.6  25.5  28.4  73.1  03:56 
 7696  01/04/2026 03:52:12  28.6  28.6  25.4  28.5  73.1  03:52 
 7695  01/04/2026 03:47:31  28.7  28.6  25.4  28.4  73.0  03:47 
 7694  01/04/2026 03:42:46  28.7  28.6  25.7  28.4  73.0  03:42 
 7693  01/04/2026 03:38:05  28.8  28.7  25.5  28.6  73.0  03:38 
 7692  01/04/2026 03:33:23  28.8  28.8  25.5  28.6  73.1  03:33 
 7691  01/04/2026 03:28:41  28.8  28.8  25.8  28.6  73.1  03:28 
 7690  01/04/2026 03:24:00  28.8  28.8  25.6  28.6  73.1  03:24 
 7689  01/04/2026 03:19:18  28.9  28.8  26.0  28.6  73.0  03:19 
 7688  01/04/2026 03:14:37  28.9  28.8  26.4  28.6  73.0  03:14 
 7687  01/04/2026 03:09:55  28.9  28.9  26.2  28.7  73.0  03:09 
 7686  01/04/2026 03:05:13  28.9  28.9  26.2  28.7  72.9  03:05 
 7685  01/04/2026 03:00:31  28.9  28.9  26.7  28.7  72.9  03:00 
 7684  01/04/2026 02:55:50  28.9  28.9  27.2  28.7  72.9  02:55 
 7683  01/04/2026 02:51:06  29.0  28.9  27.3  28.7  72.9  02:51 
 7682  01/04/2026 02:46:24  29.0  28.9  27.4  28.9  72.9  02:46 
 7681  01/04/2026 02:41:43  29.0  28.9  27.2  28.9  73.0  02:41 
 7680  01/04/2026 02:36:59  29.0  29.0  27.2  28.9  73.0  02:36 

Data every 5 minute.


ใช้เวลาประมวลผล 0.00185 วินาที